Time,TemperatureF,DewpointF,PressureIn,WindDirection,WindDirectionDegrees,WindSpeedMPH,WindSpeedGustMPH,Humidity,HourlyPrecipIn,Conditions,Clouds,dailyrainin,SoftwareType,DateUTC
2013-06-28 00:02:00,70.3,39.9,29.98,West,263,0.0,1.0,33,0.00,,,0.00,meteohub,2013-06-28 07:02:00,
2013-06-28 00:07:00,69.8,42.4,29.99,West,266,0.0,0.0,37,0.00,,,0.00,meteohub,2013-06-28 07:07:00,
2013-06-28 00:12:00,69.3,43.9,29.99,SW,221,0.0,0.0,40,0.00,,,0.00,meteohub,2013-06-28 07:12:00,
2013-06-28 00:17:00,68.7,43.3,29.98,SW,224,0.0,0.0,40,0.00,,,0.00,meteohub,2013-06-28 07:17:00,
2013-06-28 00:22:00,68.5,38.3,29.98,SW,233,0.0,0.0,33,0.00,,,0.00,meteohub,2013-06-28 07:22:00,
2013-06-28 00:27:00,69.1,35.4,29.98,WSW,245,0.0,0.0,29,0.00,,,0.00,meteohub,2013-06-28 07:27:00,
2013-06-28 00:32:00,69.6,33.3,29.98,South,176,0.0,0.0,26,0.00,,,0.00,meteohub,2013-06-28 07:32:00,
2013-06-28 00:37:00,70.2,29.5,29.98,SE,136,0.0,0.0,22,0.00,,,0.00,meteohub,2013-06-28 07:37:00,
2013-06-28 00:42:00,70.5,28.8,29.98,SE,141,0.0,0.0,21,0.00,,,0.00,meteohub,2013-06-28 07:42:00,
2013-06-28 00:47:00,70.5,30.9,29.98,SSE,150,0.0,0.0,23,0.00,,,0.00,meteohub,2013-06-28 07:47:00,
2013-06-28 00:52:00,70.3,29.7,29.98,SE,124,0.0,0.0,22,0.00,,,0.00,meteohub,2013-06-28 07:52:00,
2013-06-28 00:57:00,70.5,28.8,29.98,SSE,167,0.0,0.0,21,0.00,,,0.00,meteohub,2013-06-28 07:57:00,
2013-06-28 01:02:00,71.1,29.1,29.98,SSE,153,0.0,0.0,21,0.00,,,0.00,meteohub,2013-06-28 08:02:00,
2013-06-28 01:07:00,71.1,30.2,29.98,SE,134,0.0,0.0,22,0.00,,,0.00,meteohub,2013-06-28 08:07:00,
2013-06-28 01:12:00,71.1,29.1,29.98,West,259,0.0,0.0,21,0.00,,,0.00,meteohub,2013-06-28 08:12:00,
2013-06-28 01:17:00,71.1,30.2,29.98,SW,228,0.0,2.0,22,0.00,,,0.00,meteohub,2013-06-28 08:17:00,
2013-06-28 01:22:00,71.4,30.6,29.98,WSW,238,1.0,4.0,22,0.00,,,0.00,meteohub,2013-06-28 08:22:00,
2013-06-28 01:27:00,72.0,29.8,29.97,West,274,0.0,4.0,21,0.00,,,0.00,meteohub,2013-06-28 08:27:00,
2013-06-28 01:32:00,72.0,32.2,29.97,SW,218,1.0,6.0,23,0.00,,,0.00,meteohub,2013-06-28 08:32:00,
2013-06-28 01:37:00,71.8,34.0,29.97,SSE,163,0.0,6.0,25,0.00,,,0.00,meteohub,2013-06-28 08:37:00,
2013-06-28 01:42:00,71.8,34.0,29.97,ESE,113,0.0,4.0,25,0.00,,,0.00,meteohub,2013-06-28 08:42:00,
2013-06-28 01:47:00,72.0,33.3,29.97,SSW,194,0.0,4.0,24,0.00,,,0.00,meteohub,2013-06-28 08:47:00,
2013-06-28 01:52:00,72.0,32.2,29.97,SSW,197,0.0,3.0,23,0.00,,,0.00,meteohub,2013-06-28 08:52:00,
2013-06-28 01:57:00,72.0,29.8,29.97,SSE,162,0.0,0.0,21,0.00,,,0.00,meteohub,2013-06-28 08:57:00,
2013-06-28 02:02:00,71.8,28.6,29.97,SW,219,0.0,0.0,20,0.00,,,0.00,meteohub,2013-06-28 09:02:00,
2013-06-28 02:07:00,71.2,25.5,29.97,SSW,210,0.0,0.0,18,0.00,,,0.00,meteohub,2013-06-28 09:07:00,
2013-06-28 02:12:00,71.2,25.5,29.96,SSW,195,0.0,0.0,18,0.00,,,0.00,meteohub,2013-06-28 09:12:00,
2013-06-28 02:17:00,71.4,27.0,29.96,SSE,167,0.0,0.0,19,0.00,,,0.00,meteohub,2013-06-28 09:17:00,
2013-06-28 02:22:00,71.8,29.7,29.96,SSW,202,0.0,0.0,21,0.00,,,0.00,meteohub,2013-06-28 09:22:00,
2013-06-28 02:27:00,71.6,28.4,29.96,SSW,201,0.0,0.0,20,0.00,,,0.00,meteohub,2013-06-28 09:27:00,
2013-06-28 02:32:00,71.8,26.1,29.96,SW,217,0.0,0.0,18,0.00,,,0.00,meteohub,2013-06-28 09:32:00,
2013-06-28 02:37:00,72.0,24.8,29.96,SSW,200,0.0,0.0,17,0.00,,,0.00,meteohub,2013-06-28 09:37:00,
2013-06-28 02:42:00,72.5,23.7,29.95,SW,219,0.0,0.0,16,0.00,,,0.00,meteohub,2013-06-28 09:42:00,
2013-06-28 02:47:00,72.1,25.0,29.96,SW,226,0.0,0.0,17,0.00,,,0.00,meteohub,2013-06-28 09:47:00,
2013-06-28 02:52:00,72.0,24.8,29.96,SW,219,0.0,0.0,17,0.00,,,0.00,meteohub,2013-06-28 09:52:00,
2013-06-28 02:57:00,72.0,24.8,29.95,SW,219,0.0,0.0,17,0.00,,,0.00,meteohub,2013-06-28 09:57:00,
2013-06-28 03:02:00,71.8,26.1,29.95,SW,234,0.0,0.0,18,0.00,,,0.00,meteohub,2013-06-28 10:02:00,
2013-06-28 03:07:00,71.2,26.8,29.95,WSW,238,0.0,0.0,19,0.00,,,0.00,meteohub,2013-06-28 10:07:00,
2013-06-28 03:12:00,71.2,22.8,29.95,SW,229,0.0,0.0,16,0.00,,,0.00,meteohub,2013-06-28 10:12:00,
2013-06-28 03:17:00,71.8,24.6,29.95,SW,236,0.0,0.0,17,0.00,,,0.00,meteohub,2013-06-28 10:17:00,
2013-06-28 03:22:00,71.4,24.3,29.95,SW,236,0.0,0.0,17,0.00,,,0.00,meteohub,2013-06-28 10:22:00,
2013-06-28 03:27:00,71.2,24.3,29.95,SW,236,0.0,0.0,17,0.00,,,0.00,meteohub,2013-06-28 10:27:00,
2013-06-28 03:32:00,71.1,24.1,29.95,SW,236,0.0,0.0,17,0.00,,,0.00,meteohub,2013-06-28 10:32:00,
2013-06-28 03:37:00,70.7,23.7,29.95,SW,236,0.0,0.0,17,0.00,,,0.00,meteohub,2013-06-28 10:37:00,
2013-06-28 03:42:00,70.5,22.1,29.95,SW,236,0.0,0.0,16,0.00,,,0.00,meteohub,2013-06-28 10:42:00,
2013-06-28 03:47:00,71.1,22.6,29.95,SW,236,0.0,0.0,16,0.00,,,0.00,meteohub,2013-06-28 10:47:00,
2013-06-28 03:52:00,71.2,21.2,29.95,SW,235,0.0,0.0,15,0.00,,,0.00,meteohub,2013-06-28 10:52:00,
2013-06-28 03:57:00,71.4,21.4,29.95,SW,235,0.0,0.0,15,0.00,,,0.00,meteohub,2013-06-28 10:57:00,
2013-06-28 04:02:00,71.2,21.2,29.95,SW,236,0.0,0.0,15,0.00,,,0.00,meteohub,2013-06-28 11:02:00,
2013-06-28 04:07:00,71.2,21.2,29.95,SW,236,0.0,0.0,15,0.00,,,0.00,meteohub,2013-06-28 11:07:00,
2013-06-28 04:12:00,71.4,22.8,29.95,SW,236,0.0,0.0,16,0.00,,,0.00,meteohub,2013-06-28 11:12:00,
2013-06-28 04:17:00,71.8,24.6,29.95,SW,236,0.0,0.0,17,0.00,,,0.00,meteohub,2013-06-28 11:17:00,
2013-06-28 04:22:00,71.8,24.6,29.95,SW,236,0.0,0.0,17,0.00,,,0.00,meteohub,2013-06-28 11:22:00,
2013-06-28 04:27:00,71.8,24.6,29.94,SW,236,0.0,0.0,17,0.00,,,0.00,meteohub,2013-06-28 11:27:00,
2013-06-28 04:32:00,71.8,24.6,29.95,SW,236,0.0,0.0,17,0.00,,,0.00,meteohub,2013-06-28 11:32:00,
2013-06-28 04:37:00,71.8,24.6,29.94,SW,236,0.0,0.0,17,0.00,,,0.00,meteohub,2013-06-28 11:37:00,
2013-06-28 04:42:00,71.8,24.6,29.94,SW,235,0.0,0.0,17,0.00,,,0.00,meteohub,2013-06-28 11:42:00,
2013-06-28 04:47:00,71.8,24.6,29.94,SW,236,0.0,0.0,17,0.00,,,0.00,meteohub,2013-06-28 11:47:00,
2013-06-28 04:52:00,71.8,24.6,29.94,SW,236,0.0,0.0,17,0.00,,,0.00,meteohub,2013-06-28 11:52:00,
2013-06-28 04:57:00,71.8,24.6,29.94,SW,236,0.0,0.0,17,0.00,,,0.00,meteohub,2013-06-28 11:57:00,
2013-06-28 05:02:00,71.8,24.6,29.94,SW,236,0.0,0.0,17,0.00,,,0.00,meteohub,2013-06-28 12:02:00,
2013-06-28 05:07:00,71.8,24.6,29.94,SW,236,0.0,0.0,17,0.00,,,0.00,meteohub,2013-06-28 12:07:00,
2013-06-28 05:12:00,71.6,24.4,29.94,SW,236,0.0,0.0,17,0.00,,,0.00,meteohub,2013-06-28 12:12:00,
2013-06-28 05:17:00,71.6,24.4,29.95,SW,236,0.0,0.0,17,0.00,,,0.00,meteohub,2013-06-28 12:17:00,
2013-06-28 05:22:00,71.6,23.0,29.95,SW,236,0.0,0.0,16,0.00,,,0.00,meteohub,2013-06-28 12:22:00,
2013-06-28 05:27:00,71.6,23.0,29.95,SW,235,0.0,0.0,16,0.00,,,0.00,meteohub,2013-06-28 12:27:00,
2013-06-28 05:32:00,71.8,21.6,29.95,SW,235,0.0,0.0,15,0.00,,,0.00,meteohub,2013-06-28 12:32:00,
2013-06-28 05:37:00,71.8,21.6,29.95,SW,236,0.0,0.0,15,0.00,,,0.00,meteohub,2013-06-28 12:37:00,
2013-06-28 05:42:00,71.8,19.9,29.95,SW,235,0.0,0.0,14,0.00,,,0.00,meteohub,2013-06-28 12:42:00,
2013-06-28 05:47:00,72.0,20.1,29.95,SW,235,0.0,0.0,14,0.00,,,0.00,meteohub,2013-06-28 12:47:00,
2013-06-28 05:52:00,72.1,20.3,29.95,SW,235,0.0,0.0,14,0.00,,,0.00,meteohub,2013-06-28 12:52:00,
2013-06-28 05:57:00,72.3,20.5,29.95,SW,235,0.0,0.0,14,0.00,,,0.00,meteohub,2013-06-28 12:57:00,
2013-06-28 06:02:00,72.9,27.0,29.96,SW,235,0.0,0.0,18,0.00,,,0.00,meteohub,2013-06-28 13:02:00,
2013-06-28 06:07:00,73.2,33.3,29.96,SW,235,0.0,0.0,23,0.00,,,0.00,meteohub,2013-06-28 13:07:00,
2013-06-28 06:12:00,73.2,37.2,29.96,SW,235,0.0,0.0,27,0.00,,,0.00,meteohub,2013-06-28 13:12:00,
2013-06-28 06:17:00,73.6,40.3,29.96,SW,235,0.0,0.0,30,0.00,,,0.00,meteohub,2013-06-28 13:17:00,
2013-06-28 06:22:00,73.9,42.3,29.96,SW,235,0.0,0.0,32,0.00,,,0.00,meteohub,2013-06-28 13:22:00,
2013-06-28 06:27:00,74.1,43.2,29.95,SW,235,0.0,0.0,33,0.00,,,0.00,meteohub,2013-06-28 13:27:00,
2013-06-28 06:32:00,74.5,45.0,29.95,SW,235,0.0,0.0,35,0.00,,,0.00,meteohub,2013-06-28 13:32:00,
2013-06-28 06:37:00,74.7,46.6,29.95,SW,235,0.0,0.0,37,0.00,,,0.00,meteohub,2013-06-28 13:37:00,
2013-06-28 06:42:00,74.8,46.8,29.95,SW,235,0.0,0.0,37,0.00,,,0.00,meteohub,2013-06-28 13:42:00,
2013-06-28 06:47:00,75.0,45.5,29.95,SW,235,0.0,0.0,35,0.00,,,0.00,meteohub,2013-06-28 13:47:00,
2013-06-28 06:52:00,75.4,45.9,29.95,SW,235,0.0,0.0,35,0.00,,,0.00,meteohub,2013-06-28 13:52:00,
2013-06-28 06:57:00,75.9,47.1,29.95,SW,235,0.0,0.0,36,0.00,,,0.00,meteohub,2013-06-28 13:57:00,
2013-06-28 07:02:00,76.1,47.1,29.95,SW,235,0.0,0.0,36,0.00,,,0.00,meteohub,2013-06-28 14:02:00,
2013-06-28 07:07:00,76.1,48.0,29.95,SW,235,0.0,0.0,37,0.00,,,0.00,meteohub,2013-06-28 14:07:00,
2013-06-28 07:12:00,76.1,48.6,29.96,SW,235,0.0,0.0,38,0.00,,,0.00,meteohub,2013-06-28 14:12:00,
2013-06-28 07:17:00,76.1,50.0,29.95,SW,235,0.0,0.0,40,0.00,,,0.00,meteohub,2013-06-28 14:17:00,
2013-06-28 07:22:00,76.1,49.3,29.95,SW,235,0.0,0.0,39,0.00,,,0.00,meteohub,2013-06-28 14:22:00,
2013-06-28 07:27:00,76.3,50.2,29.95,SW,235,0.0,0.0,40,0.00,,,0.00,meteohub,2013-06-28 14:27:00,
2013-06-28 07:32:00,76.8,51.3,29.96,SE,139,0.0,0.0,41,0.00,,,0.00,meteohub,2013-06-28 14:32:00,
2013-06-28 07:37:00,77.2,50.4,29.95,SE,136,0.0,0.0,39,0.00,,,0.00,meteohub,2013-06-28 14:37:00,
2013-06-28 07:42:00,77.5,50.0,29.95,East,97,0.0,0.0,38,0.00,,,0.00,meteohub,2013-06-28 14:42:00,
2013-06-28 07:47:00,78.1,49.6,29.95,East,98,0.0,0.0,37,0.00,,,0.00,meteohub,2013-06-28 14:47:00,
2013-06-28 07:52:00,78.4,51.4,29.95,East,98,0.0,0.0,39,0.00,,,0.00,meteohub,2013-06-28 14:52:00,
2013-06-28 07:57:00,78.8,52.5,29.95,East,98,0.0,0.0,40,0.00,,,0.00,meteohub,2013-06-28 14:57:00,
2013-06-28 08:02:00,79.2,49.8,29.95,NE,45,0.0,0.0,36,0.00,,,0.00,meteohub,2013-06-28 15:02:00,
2013-06-28 08:07:00,79.5,49.5,29.95,NE,49,0.0,0.0,35,0.00,,,0.00,meteohub,2013-06-28 15:07:00,
2013-06-28 08:12:00,79.9,51.3,29.95,ESE,111,0.0,0.0,37,0.00,,,0.00,meteohub,2013-06-28 15:12:00,
2013-06-28 08:17:00,80.1,50.0,29.95,ESE,105,0.0,0.0,35,0.00,,,0.00,meteohub,2013-06-28 15:17:00,
2013-06-28 08:22:00,80.4,47.8,29.95,East,83,0.0,0.0,32,0.00,,,0.00,meteohub,2013-06-28 15:22:00,
2013-06-28 08:27:00,81.0,46.6,29.95,ENE,70,0.0,0.0,30,0.00,,,0.00,meteohub,2013-06-28 15:27:00,
2013-06-28 08:32:00,81.7,42.4,29.95,NE,36,0.0,0.0,25,0.00,,,0.00,meteohub,2013-06-28 15:32:00,
2013-06-28 08:37:00,82.2,43.9,29.95,ENE,65,0.0,0.0,26,0.00,,,0.00,meteohub,2013-06-28 15:37:00,
2013-06-28 08:42:00,83.1,44.6,29.95,ENE,71,0.0,0.0,26,0.00,,,0.00,meteohub,2013-06-28 15:42:00,
2013-06-28 08:47:00,83.8,45.3,29.95,ENE,59,0.0,0.0,26,0.00,,,0.00,meteohub,2013-06-28 15:47:00,
2013-06-28 08:52:00,84.0,46.4,29.94,East,94,0.0,4.0,27,0.00,,,0.00,meteohub,2013-06-28 15:52:00,
2013-06-28 08:57:00,84.9,45.1,29.95,NE,53,0.0,4.0,25,0.00,,,0.00,meteohub,2013-06-28 15:57:00,
2013-06-28 09:02:00,85.3,46.6,29.95,East,86,0.0,4.0,26,0.00,,,0.00,meteohub,2013-06-28 16:02:00,
2013-06-28 09:07:00,85.3,46.6,29.95,ESE,105,0.0,0.0,26,0.00,,,0.00,meteohub,2013-06-28 16:07:00,
2013-06-28 09:12:00,85.5,46.6,29.95,East,88,0.0,0.0,26,0.00,,,0.00,meteohub,2013-06-28 16:12:00,
2013-06-28 09:17:00,86.0,46.0,29.95,ESE,120,0.0,0.0,25,0.00,,,0.00,meteohub,2013-06-28 16:17:00,
2013-06-28 09:22:00,86.4,46.4,29.95,WNW,284,0.0,0.0,25,0.00,,,0.00,meteohub,2013-06-28 16:22:00,
2013-06-28 09:27:00,86.5,47.7,29.95,SSE,163,0.0,0.0,26,0.00,,,0.00,meteohub,2013-06-28 16:27:00,
2013-06-28 09:32:00,87.4,47.3,29.94,SE,124,0.0,0.0,25,0.00,,,0.00,meteohub,2013-06-28 16:32:00,
2013-06-28 09:37:00,86.5,45.5,29.94,WNW,298,0.0,2.0,24,0.00,,,0.00,meteohub,2013-06-28 16:37:00,
2013-06-28 09:42:00,86.2,46.2,29.94,ENE,58,0.0,2.0,25,0.00,,,0.00,meteohub,2013-06-28 16:42:00,
2013-06-28 09:47:00,87.6,48.6,29.94,East,101,0.0,2.0,26,0.00,,,0.00,meteohub,2013-06-28 16:47:00,
2013-06-28 09:52:00,89.1,48.7,29.94,ESE,105,1.0,2.0,25,0.00,,,0.00,meteohub,2013-06-28 16:52:00,
2013-06-28 09:57:00,89.2,46.6,29.94,NE,43,3.0,3.0,23,0.00,,,0.00,meteohub,2013-06-28 16:57:00,
2013-06-28 10:02:00,89.1,46.4,29.94,East,98,0.0,4.0,23,0.00,,,0.00,meteohub,2013-06-28 17:02:00,
2013-06-28 10:07:00,89.1,46.4,29.94,ESE,109,2.0,4.0,23,0.00,,,0.00,meteohub,2013-06-28 17:07:00,
2013-06-28 10:12:00,87.8,45.3,29.94,ESE,114,5.0,7.0,23,0.00,,,0.00,meteohub,2013-06-28 17:12:00,
2013-06-28 10:17:00,87.4,45.1,29.94,South,178,0.0,7.0,23,0.00,,,0.00,meteohub,2013-06-28 17:17:00,
2013-06-28 10:22:00,88.2,45.7,29.94,WSW,246,0.0,7.0,23,0.00,,,0.00,meteohub,2013-06-28 17:22:00,
2013-06-28 10:27:00,88.7,46.2,29.94,SW,221,0.0,5.0,23,0.00,,,0.00,meteohub,2013-06-28 17:27:00,
2013-06-28 10:32:00,87.6,45.3,29.94,SSE,157,1.0,8.0,23,0.00,,,0.00,meteohub,2013-06-28 17:32:00,
2013-06-28 10:37:00,87.4,46.2,29.94,NNW,332,1.0,8.0,24,0.00,,,0.00,meteohub,2013-06-28 17:37:00,
2013-06-28 10:42:00,87.4,45.1,29.94,East,79,3.0,8.0,23,0.00,,,0.00,meteohub,2013-06-28 17:42:00,
2013-06-28 10:47:00,86.5,45.5,29.94,SE,133,3.0,5.0,24,0.00,,,0.00,meteohub,2013-06-28 17:47:00,
2013-06-28 10:52:00,86.5,47.7,29.94,SSE,158,0.0,5.0,26,0.00,,,0.00,meteohub,2013-06-28 17:52:00,
2013-06-28 10:57:00,87.6,47.5,29.94,ESE,114,0.0,5.0,25,0.00,,,0.00,meteohub,2013-06-28 17:57:00,
2013-06-28 11:02:00,87.1,46.9,29.94,South,179,1.0,8.0,25,0.00,,,0.00,meteohub,2013-06-28 18:02:00,
2013-06-28 11:07:00,87.3,49.3,29.94,ESE,104,5.0,8.0,27,0.00,,,0.00,meteohub,2013-06-28 18:07:00,
2013-06-28 11:12:00,87.1,50.0,29.94,SSE,165,3.0,8.0,28,0.00,,,0.00,meteohub,2013-06-28 18:12:00,
2013-06-28 11:17:00,87.6,49.5,29.94,ESE,103,2.0,6.0,27,0.00,,,0.00,meteohub,2013-06-28 18:17:00,
2013-06-28 11:22:00,87.3,50.2,29.94,SSW,193,3.0,6.0,28,0.00,,,0.00,meteohub,2013-06-28 18:22:00,
2013-06-28 11:27:00,86.7,49.6,29.94,SSE,147,7.0,8.0,28,0.00,,,0.00,meteohub,2013-06-28 18:27:00,
2013-06-28 11:32:00,86.4,50.4,29.94,WSW,240,2.0,8.0,29,0.00,,,0.00,meteohub,2013-06-28 18:32:00,
2013-06-28 11:37:00,86.5,51.4,29.94,SE,141,1.0,8.0,30,0.00,,,0.00,meteohub,2013-06-28 18:37:00,
2013-06-28 11:42:00,87.1,50.9,29.94,SE,125,4.0,8.0,29,0.00,,,0.00,meteohub,2013-06-28 18:42:00,
2013-06-28 11:47:00,86.7,50.7,29.94,SSE,157,4.0,7.0,29,0.00,,,0.00,meteohub,2013-06-28 18:47:00,
2013-06-28 11:52:00,86.0,50.0,29.94,ENE,61,3.0,7.0,29,0.00,,,0.00,meteohub,2013-06-28 18:52:00,
2013-06-28 11:57:00,85.3,51.3,29.94,ESE,117,3.0,9.0,31,0.00,,,0.00,meteohub,2013-06-28 18:57:00,
2013-06-28 12:02:00,84.7,50.7,29.94,SE,127,2.0,9.0,31,0.00,,,0.00,meteohub,2013-06-28 19:02:00,
2013-06-28 12:07:00,84.6,50.5,29.94,South,170,4.0,9.0,31,0.00,,,0.00,meteohub,2013-06-28 19:07:00,
2013-06-28 12:17:00,84.9,50.9,29.94,SE,127,7.0,8.0,31,0.00,,,0.00,meteohub,2013-06-28 19:17:00,
2013-06-28 12:22:00,85.3,52.2,29.93,SE,146,3.0,8.0,32,0.00,,,0.00,meteohub,2013-06-28 19:22:00,
2013-06-28 12:27:00,84.9,50.9,29.93,SE,146,3.0,8.0,31,0.00,,,0.00,meteohub,2013-06-28 19:27:00,
2013-06-28 12:32:00,85.3,52.2,29.93,SSW,197,4.0,10.0,32,0.00,,,0.00,meteohub,2013-06-28 19:32:00,
2013-06-28 12:37:00,85.3,52.2,29.93,East,94,2.0,10.0,32,0.00,,,0.00,meteohub,2013-06-28 19:37:00,
2013-06-28 12:42:00,85.6,51.6,29.93,SSW,208,6.0,11.0,31,0.00,,,0.00,meteohub,2013-06-28 19:42:00,
2013-06-28 12:47:00,85.6,52.3,29.93,West,274,3.0,11.0,32,0.00,,,0.00,meteohub,2013-06-28 19:47:00,
2013-06-28 12:52:00,85.5,52.2,29.93,ESE,107,3.0,10.0,32,0.00,,,0.00,meteohub,2013-06-28 19:52:00,
2013-06-28 12:57:00,85.5,52.2,29.92,SW,219,1.0,10.0,32,0.00,,,0.00,meteohub,2013-06-28 19:57:00,
2013-06-28 13:02:00,85.6,51.6,29.92,SSW,195,4.0,10.0,31,0.00,,,0.00,meteohub,2013-06-28 20:02:00,
2013-06-28 13:12:00,85.1,50.2,29.92,SE,131,4.0,8.0,30,0.00,,,0.00,meteohub,2013-06-28 20:12:00,
2013-06-28 13:17:00,84.6,49.6,29.92,South,183,2.0,8.0,30,0.00,,,0.00,meteohub,2013-06-28 20:17:00,
2013-06-28 13:22:00,84.7,49.8,29.92,SE,135,3.0,11.0,30,0.00,,,0.00,meteohub,2013-06-28 20:22:00,
2013-06-28 13:27:00,84.7,49.8,29.92,SE,144,6.0,11.0,30,0.00,,,0.00,meteohub,2013-06-28 20:27:00,
2013-06-28 13:32:00,84.6,50.5,29.91,SE,143,2.0,8.0,31,0.00,,,0.00,meteohub,2013-06-28 20:32:00,
2013-06-28 13:37:00,85.3,50.4,29.91,SE,127,2.0,10.0,30,0.00,,,0.00,meteohub,2013-06-28 20:37:00,
2013-06-28 13:42:00,85.6,50.7,29.91,SSW,205,1.0,10.0,30,0.00,,,0.00,meteohub,2013-06-28 20:42:00,
2013-06-28 13:47:00,85.5,50.5,29.91,ESE,122,3.0,8.0,30,0.00,,,0.00,meteohub,2013-06-28 20:47:00,
2013-06-28 13:52:00,85.6,51.6,29.91,ENE,68,4.0,8.0,31,0.00,,,0.00,meteohub,2013-06-28 20:52:00,
2013-06-28 13:57:00,86.2,50.2,29.91,SSW,197,2.0,8.0,29,0.00,,,0.00,meteohub,2013-06-28 20:57:00,
2013-06-28 14:02:00,86.0,50.0,29.91,SW,217,2.0,9.0,29,0.00,,,0.00,meteohub,2013-06-28 21:02:00,
2013-06-28 14:07:00,85.6,47.8,29.91,East,96,5.0,9.0,27,0.00,,,0.00,meteohub,2013-06-28 21:07:00,
2013-06-28 14:12:00,85.3,48.6,29.91,SW,235,5.0,9.0,28,0.00,,,0.00,meteohub,2013-06-28 21:12:00,
2013-06-28 14:17:00,84.9,48.2,29.90,ESE,122,4.0,10.0,28,0.00,,,0.00,meteohub,2013-06-28 21:17:00,
2013-06-28 14:22:00,85.3,48.6,29.90,ENE,74,4.0,10.0,28,0.00,,,0.00,meteohub,2013-06-28 21:22:00,
2013-06-28 14:27:00,85.3,48.6,29.89,SW,220,4.0,12.0,28,0.00,,,0.00,meteohub,2013-06-28 21:27:00,
2013-06-28 14:32:00,85.5,48.6,29.89,SSW,205,1.0,12.0,28,0.00,,,0.00,meteohub,2013-06-28 21:32:00,
2013-06-28 14:37:00,86.2,49.3,29.89,ESE,121,1.0,12.0,28,0.00,,,0.00,meteohub,2013-06-28 21:37:00,
2013-06-28 14:42:00,85.6,48.7,29.89,SSE,160,5.0,9.0,28,0.00,,,0.00,meteohub,2013-06-28 21:42:00,
2013-06-28 14:47:00,85.3,48.6,29.89,SSE,150,2.0,9.0,28,0.00,,,0.00,meteohub,2013-06-28 21:47:00,
2013-06-28 14:52:00,85.8,48.0,29.89,SSE,159,4.0,9.0,27,0.00,,,0.00,meteohub,2013-06-28 21:52:00,
2013-06-28 14:57:00,84.9,47.1,29.88,SW,215,2.0,14.0,27,0.00,,,0.00,meteohub,2013-06-28 21:57:00,
2013-06-28 15:02:00,85.5,47.7,29.88,ESE,108,5.0,14.0,27,0.00,,,0.00,meteohub,2013-06-28 22:02:00,
2013-06-28 15:07:00,85.5,47.7,29.88,ESE,102,3.0,14.0,27,0.00,,,0.00,meteohub,2013-06-28 22:07:00,
2013-06-28 15:12:00,85.1,45.3,29.88,ESE,103,4.0,10.0,25,0.00,,,0.00,meteohub,2013-06-28 22:12:00,
2013-06-28 15:17:00,85.1,47.3,29.88,ESE,108,1.0,10.0,27,0.00,,,0.00,meteohub,2013-06-28 22:17:00,
2013-06-28 15:22:00,84.9,47.1,29.88,East,94,4.0,9.0,27,0.00,,,0.00,meteohub,2013-06-28 22:22:00,
2013-06-28 15:27:00,84.7,47.1,29.88,SW,221,1.0,9.0,27,0.00,,,0.00,meteohub,2013-06-28 22:27:00,
2013-06-28 15:32:00,84.9,48.2,29.88,ESE,114,4.0,12.0,28,0.00,,,0.00,meteohub,2013-06-28 22:32:00,
2013-06-28 15:37:00,85.5,49.6,29.88,SW,228,5.0,12.0,29,0.00,,,0.00,meteohub,2013-06-28 22:37:00,
2013-06-28 15:42:00,84.9,46.2,29.88,SSE,158,7.0,12.0,26,0.00,,,0.00,meteohub,2013-06-28 22:42:00,
2013-06-28 15:47:00,84.7,48.0,29.87,South,191,3.0,10.0,28,0.00,,,0.00,meteohub,2013-06-28 22:47:00,
2013-06-28 15:52:00,84.6,50.5,29.87,SW,231,2.0,10.0,31,0.00,,,0.00,meteohub,2013-06-28 22:52:00,
2013-06-28 15:57:00,84.2,50.4,29.87,East,84,5.0,9.0,31,0.00,,,0.00,meteohub,2013-06-28 22:57:00,
2013-06-28 16:02:00,83.7,49.8,29.87,WSW,251,4.0,12.0,31,0.00,,,0.00,meteohub,2013-06-28 23:02:00,
2013-06-28 16:07:00,83.5,50.5,29.87,SE,124,6.0,14.0,32,0.00,,,0.00,meteohub,2013-06-28 23:07:00,
2013-06-28 16:12:00,83.1,50.2,29.87,South,177,5.0,14.0,32,0.00,,,0.00,meteohub,2013-06-28 23:12:00,
2013-06-28 16:17:00,82.8,50.7,29.86,SW,225,3.0,15.0,33,0.00,,,0.00,meteohub,2013-06-28 23:17:00,
2013-06-28 16:22:00,82.6,50.5,29.87,SSE,153,3.0,15.0,33,0.00,,,0.00,meteohub,2013-06-28 23:22:00,
2013-06-28 16:27:00,82.4,50.4,29.86,ESE,122,2.0,15.0,33,0.00,,,0.00,meteohub,2013-06-28 23:27:00,
2013-06-28 16:32:00,82.6,50.5,29.86,SE,143,8.0,11.0,33,0.00,,,0.00,meteohub,2013-06-28 23:32:00,
2013-06-28 16:37:00,82.4,51.3,29.86,WSW,248,8.0,13.0,34,0.00,,,0.00,meteohub,2013-06-28 23:37:00,
2013-06-28 16:42:00,82.0,50.9,29.86,SSE,151,8.0,13.0,34,0.00,,,0.00,meteohub,2013-06-28 23:42:00,
2013-06-28 16:47:00,81.7,52.2,29.87,SW,225,2.0,13.0,36,0.00,,,0.00,meteohub,2013-06-28 23:47:00,
2013-06-28 16:52:00,81.7,52.2,29.87,SSE,149,3.0,10.0,36,0.00,,,0.00,meteohub,2013-06-28 23:52:00,
2013-06-28 16:57:00,81.7,52.9,29.86,East,84,0.0,10.0,37,0.00,,,0.00,meteohub,2013-06-28 23:57:00,
2013-06-28 17:02:00,81.3,52.5,29.86,ESE,117,2.0,10.0,37,0.00,,,0.00,meteohub,2013-06-29 00:02:00,
2013-06-28 17:07:00,81.3,52.5,29.86,SW,229,1.0,8.0,37,0.00,,,0.00,meteohub,2013-06-29 00:07:00,
2013-06-28 17:12:00,81.1,53.1,29.86,SSE,163,4.0,7.0,38,0.00,,,0.00,meteohub,2013-06-29 00:12:00,
2013-06-28 17:17:00,80.8,52.9,29.86,WNW,286,1.0,6.0,38,0.00,,,0.00,meteohub,2013-06-29 00:17:00,
2013-06-28 17:22:00,80.8,52.9,29.86,ESE,111,3.0,6.0,38,0.00,,,0.00,meteohub,2013-06-29 00:22:00,
2013-06-28 17:27:00,80.1,52.2,29.86,SSE,162,3.0,6.0,38,0.00,,,0.00,meteohub,2013-06-29 00:27:00,
2013-06-28 17:32:00,79.9,52.7,29.86,SSE,158,4.0,7.0,39,0.00,,,0.00,meteohub,2013-06-29 00:32:00,
2013-06-28 17:37:00,79.5,53.1,29.86,South,169,2.0,9.0,40,0.00,,,0.00,meteohub,2013-06-29 00:37:00,
2013-06-28 17:42:00,79.2,53.4,29.86,SE,134,3.0,9.0,41,0.00,,,0.00,meteohub,2013-06-29 00:42:00,
2013-06-28 17:47:00,78.8,53.1,29.86,SE,134,2.0,10.0,41,0.00,,,0.00,meteohub,2013-06-29 00:47:00,
2013-06-28 17:52:00,78.6,52.9,29.85,ESE,117,2.0,10.0,41,0.00,,,0.00,meteohub,2013-06-29 00:52:00,
2013-06-28 17:57:00,78.4,52.7,29.85,SE,133,4.0,8.0,41,0.00,,,0.00,meteohub,2013-06-29 00:57:00,
2013-06-28 18:02:00,78.1,52.5,29.85,South,177,2.0,10.0,41,0.00,,,0.00,meteohub,2013-06-29 01:02:00,
2013-06-28 18:07:00,77.9,52.3,29.85,SSW,201,4.0,10.0,41,0.00,,,0.00,meteohub,2013-06-29 01:07:00,
2013-06-28 18:12:00,77.5,52.7,29.85,SE,129,3.0,11.0,42,0.00,,,0.00,meteohub,2013-06-29 01:12:00,
2013-06-28 18:17:00,77.4,52.5,29.85,South,173,5.0,11.0,42,0.00,,,0.00,meteohub,2013-06-29 01:17:00,
2013-06-28 18:22:00,77.4,53.1,29.85,SSW,194,3.0,15.0,43,0.00,,,0.00,meteohub,2013-06-29 01:22:00,
2013-06-28 18:27:00,77.2,53.6,29.85,SSE,149,4.0,15.0,44,0.00,,,0.00,meteohub,2013-06-29 01:27:00,
2013-06-28 18:32:00,76.6,53.1,29.85,ESE,117,3.0,12.0,44,0.00,,,0.00,meteohub,2013-06-29 01:32:00,
2013-06-28 18:37:00,76.3,52.7,29.85,SE,143,7.0,12.0,44,0.00,,,0.00,meteohub,2013-06-29 01:37:00,
2013-06-28 18:42:00,75.9,53.1,29.85,SE,132,2.0,12.0,45,0.00,,,0.00,meteohub,2013-06-29 01:42:00,
2013-06-28 18:47:00,75.6,54.0,29.85,SE,133,6.0,18.0,47,0.00,,,0.00,meteohub,2013-06-29 01:47:00,
2013-06-28 18:52:00,75.4,54.3,29.85,ESE,105,6.0,18.0,48,0.00,,,0.00,meteohub,2013-06-29 01:52:00,
2013-06-28 18:57:00,75.0,54.5,29.85,ESE,121,3.0,18.0,49,0.00,,,0.00,meteohub,2013-06-29 01:57:00,
2013-06-28 19:02:00,74.8,54.3,29.85,SSE,167,6.0,15.0,49,0.00,,,0.00,meteohub,2013-06-29 02:02:00,
2013-06-28 19:07:00,74.7,54.9,29.85,ESE,117,4.0,14.0,50,0.00,,,0.00,meteohub,2013-06-29 02:07:00,
2013-06-28 19:12:00,74.3,55.0,29.85,East,98,6.0,13.0,51,0.00,,,0.00,meteohub,2013-06-29 02:12:00,
2013-06-28 19:17:00,74.1,54.3,29.85,SE,139,2.0,12.0,50,0.00,,,0.00,meteohub,2013-06-29 02:17:00,
2013-06-28 19:22:00,74.1,54.9,29.86,SSE,166,2.0,12.0,51,0.00,,,0.00,meteohub,2013-06-29 02:22:00,
2013-06-28 19:27:00,73.9,54.7,29.86,SE,134,3.0,15.0,51,0.00,,,0.00,meteohub,2013-06-29 02:27:00,
2013-06-28 19:32:00,73.8,54.5,29.86,East,84,5.0,15.0,51,0.00,,,0.00,meteohub,2013-06-29 02:32:00,
2013-06-28 19:37:00,73.8,55.0,29.85,East,95,5.0,15.0,52,0.00,,,0.00,meteohub,2013-06-29 02:37:00,
2013-06-28 19:42:00,73.8,52.3,29.86,SE,138,2.0,13.0,47,0.00,,,0.00,meteohub,2013-06-29 02:42:00,
2013-06-28 19:47:00,73.8,54.5,29.86,ESE,104,5.0,14.0,51,0.00,,,0.00,meteohub,2013-06-29 02:47:00,
2013-06-28 19:52:00,73.6,54.3,29.85,East,92,3.0,14.0,51,0.00,,,0.00,meteohub,2013-06-29 02:52:00,
2013-06-28 19:57:00,73.6,52.2,29.85,East,84,3.0,14.0,47,0.00,,,0.00,meteohub,2013-06-29 02:57:00,
2013-06-28 20:02:00,73.8,49.3,29.85,South,172,0.0,10.0,42,0.00,,,0.00,meteohub,2013-06-29 03:02:00,
2013-06-28 20:07:00,73.9,48.7,29.85,SSE,160,2.0,10.0,41,0.00,,,0.00,meteohub,2013-06-29 03:07:00,
2013-06-28 20:12:00,74.1,48.2,29.86,SSW,195,1.0,10.0,40,0.00,,,0.00,meteohub,2013-06-29 03:12:00,
2013-06-28 20:17:00,74.3,42.6,29.86,SE,142,2.0,8.0,32,0.00,,,0.00,meteohub,2013-06-29 03:17:00,
2013-06-28 20:22:00,74.7,41.2,29.86,SE,142,5.0,8.0,30,0.00,,,0.00,meteohub,2013-06-29 03:22:00,
2013-06-28 20:27:00,75.0,42.3,29.86,SW,229,1.0,9.0,31,0.00,,,0.00,meteohub,2013-06-29 03:27:00,
2013-06-28 20:32:00,75.0,36.9,29.86,ESE,105,4.0,11.0,25,0.00,,,0.00,meteohub,2013-06-29 03:32:00,
2013-06-28 20:37:00,75.2,37.0,29.86,SSE,163,1.0,11.0,25,0.00,,,0.00,meteohub,2013-06-29 03:37:00,
2013-06-28 20:42:00,75.4,35.1,29.86,East,98,2.0,11.0,23,0.00,,,0.00,meteohub,2013-06-29 03:42:00,
2013-06-28 20:47:00,75.6,37.2,29.87,ESE,105,2.0,10.0,25,0.00,,,0.00,meteohub,2013-06-29 03:47:00,
2013-06-28 20:52:00,75.7,35.2,29.87,South,179,3.0,10.0,23,0.00,,,0.00,meteohub,2013-06-29 03:52:00,
2013-06-28 20:57:00,75.6,35.2,29.87,South,181,3.0,7.0,23,0.00,,,0.00,meteohub,2013-06-29 03:57:00,
2013-06-28 21:02:00,75.6,34.0,29.87,South,190,0.0,7.0,22,0.00,,,0.00,meteohub,2013-06-29 04:02:00,
2013-06-28 21:07:00,75.7,35.2,29.87,SE,141,1.0,7.0,23,0.00,,,0.00,meteohub,2013-06-29 04:07:00,
2013-06-28 21:12:00,75.7,35.2,29.88,South,169,0.0,7.0,23,0.00,,,0.00,meteohub,2013-06-29 04:12:00,
2013-06-28 21:17:00,75.4,35.1,29.88,SE,129,4.0,7.0,23,0.00,,,0.00,meteohub,2013-06-29 04:17:00,
2013-06-28 21:22:00,75.4,32.7,29.88,SSE,153,2.0,9.0,21,0.00,,,0.00,meteohub,2013-06-29 04:22:00,
2013-06-28 21:27:00,75.6,34.0,29.88,ENE,78,1.0,9.0,22,0.00,,,0.00,meteohub,2013-06-29 04:27:00,
2013-06-28 21:32:00,75.4,31.5,29.88,SSW,200,2.0,9.0,20,0.00,,,0.00,meteohub,2013-06-29 04:32:00,
2013-06-28 21:37:00,75.6,30.4,29.88,SE,132,3.0,9.0,19,0.00,,,0.00,meteohub,2013-06-29 04:37:00,
2013-06-28 21:42:00,75.6,31.6,29.89,SSW,192,2.0,8.0,20,0.00,,,0.00,meteohub,2013-06-29 04:42:00,
2013-06-28 21:47:00,75.6,27.7,29.89,SW,236,4.0,9.0,17,0.00,,,0.00,meteohub,2013-06-29 04:47:00,
2013-06-28 21:52:00,75.7,27.9,29.89,WSW,252,0.0,9.0,17,0.00,,,0.00,meteohub,2013-06-29 04:52:00,
2013-06-28 21:57:00,75.7,23.2,29.89,WSW,240,2.0,9.0,14,0.00,,,0.00,meteohub,2013-06-29 04:57:00,
2013-06-28 22:02:00,75.7,23.2,29.89,West,275,0.0,8.0,14,0.00,,,0.00,meteohub,2013-06-29 05:02:00,
2013-06-28 22:07:00,75.6,23.0,29.89,SW,225,1.0,8.0,14,0.00,,,0.00,meteohub,2013-06-29 05:07:00,
2013-06-28 22:12:00,75.4,22.8,29.89,SSE,155,4.0,8.0,14,0.00,,,0.00,meteohub,2013-06-29 05:12:00,
2013-06-28 22:17:00,75.4,22.8,29.89,South,181,1.0,5.0,14,0.00,,,0.00,meteohub,2013-06-29 05:17:00,
2013-06-28 22:22:00,75.4,22.8,29.89,SSW,206,3.0,6.0,14,0.00,,,0.00,meteohub,2013-06-29 05:22:00,
2013-06-28 22:27:00,75.4,22.8,29.89,WNW,282,2.0,8.0,14,0.00,,,0.00,meteohub,2013-06-29 05:27:00,
2013-06-28 22:32:00,75.4,24.4,29.89,WNW,282,0.0,8.0,15,0.00,,,0.00,meteohub,2013-06-29 05:32:00,
2013-06-28 22:37:00,75.6,24.6,29.89,SSE,160,3.0,8.0,15,0.00,,,0.00,meteohub,2013-06-29 05:37:00,
2013-06-28 22:42:00,75.7,24.8,29.89,ESE,103,1.0,6.0,15,0.00,,,0.00,meteohub,2013-06-29 05:42:00,
2013-06-28 22:47:00,75.7,24.8,29.89,SSW,211,1.0,6.0,15,0.00,,,0.00,meteohub,2013-06-29 05:47:00,
2013-06-28 22:52:00,75.7,24.8,29.89,SW,224,1.0,7.0,15,0.00,,,0.00,meteohub,2013-06-29 05:52:00,
2013-06-28 22:57:00,75.7,24.8,29.89,SE,138,2.0,7.0,15,0.00,,,0.00,meteohub,2013-06-29 05:57:00,
2013-06-28 23:02:00,75.7,26.4,29.89,SW,221,2.0,6.0,16,0.00,,,0.00,meteohub,2013-06-29 06:02:00,
2013-06-28 23:07:00,75.6,26.2,29.89,South,170,4.0,7.0,16,0.00,,,0.00,meteohub,2013-06-29 06:07:00,
2013-06-28 23:12:00,75.7,27.9,29.89,SSW,205,2.0,7.0,17,0.00,,,0.00,meteohub,2013-06-29 06:12:00,
2013-06-28 23:17:00,75.7,27.9,29.89,SE,136,1.0,8.0,17,0.00,,,0.00,meteohub,2013-06-29 06:17:00,
2013-06-28 23:22:00,75.9,26.4,29.89,ESE,117,2.0,8.0,16,0.00,,,0.00,meteohub,2013-06-29 06:22:00,
2013-06-28 23:27:00,75.9,28.0,29.89,East,97,2.0,8.0,17,0.00,,,0.00,meteohub,2013-06-29 06:27:00,
2013-06-28 23:32:00,75.7,26.4,29.89,SW,224,2.0,8.0,16,0.00,,,0.00,meteohub,2013-06-29 06:32:00,
2013-06-28 23:37:00,75.7,26.4,29.89,SE,131,5.0,8.0,16,0.00,,,0.00,meteohub,2013-06-29 06:37:00,
2013-06-28 23:42:00,75.9,25.0,29.89,ESE,114,4.0,8.0,15,0.00,,,0.00,meteohub,2013-06-29 06:42:00,
2013-06-28 23:47:00,75.9,23.4,29.89,SE,146,2.0,9.0,14,0.00,,,0.00,meteohub,2013-06-29 06:47:00,
2013-06-28 23:52:00,75.6,17.4,29.89,West,263,1.0,9.0,11,0.00,,,0.00,meteohub,2013-06-29 06:52:00,
2013-06-28 23:57:00,75.6,19.4,29.89,South,172,2.0,8.0,12,0.00,,,0.00,meteohub,2013-06-29 06:57:00,